Temperature
15 15 15 15 15 15 15 15 15 15 15 15 15 15 15 15 15 15 15 15 15 15 15 15 15 15 15 15 15 15 15 15 15 15 15 15 15 15 15 15 15 15 15
16 15 15 15 15 15 15 15 15 15 15 15 15 15 15 15 15 15 15 15 15 15 15 15 15 15 15 15 15 15 15 15 15 15 15 15 15 15 15 15 15 15 15
15 15 15 14 14 15 15 15 15 15 15 15 15 15 15 15 15 15 15 15 15 15 15 15 15 15 15 15 15 15 15 15 15 15 15 15 15 15 15 15 15 15 15
15 15 14 14 14 14 14 14 14 14 14 14 14 14 15 15 15 15 14 15 15 15 15 15 15 15 15 15 15 15 15 15 15 15 15 15 15 15 15 15 15 15 15
14 14 14 14 14 14 14 14 14 14 14 14 14 14 14 14 14 14 14 14 14 14 14 14 14 14 14 15 15 15 15 15 15 15 15 15 14 14 15 15 15 15 15
14 14 14 14 14 14 14 14 14 14 14 14 14 14 14 14 14 14 14 14 14 14 14 14 14 14 14 14 14 14 14 14 14 14 14 14 14 14 14 14 14 14 14
14 14 14 13 13 14 14 14 14 13 13 14 14 14 14 14 14 14 14 14 14 14 14 14 14 14 14 14 14 14 14 14 14 14 14 14 14 14 14 14 14 14 14
14 13 13 13 13 13 13 13 13 13 13 13 13 13 13 14 14 14 14 14 14 14 14 14 14 14 14 14 14 14 14 14 14 14 14 14 14 14 14 14 14 14 14
13 13 13 13 13 13 13 13 13 13 13 13 13 13 13 13 13 13 13 13 13 13 13 13 13 13 13 14 14 14 14 14 14 14 14 14 13 14 14 14 14 14 14
13 13 13 12 12 12 13 13 13 12 13 13 13 13 13 13 13 13 13 13 13 13 13 13 13 13 13 13 13 13 13 13 13 13 13 13 13 13 13 14 14 14 14
12 12 12 12 12 12 12 12 12 12 12 12 12 12 12 13 13 13 13 13 13 13 13 13 13 13 13 13 13 13 13 13 13 13 13 13 13 13 13 13 13 13 13
12 12 12 12 12 12 12 12 12 12 12 12 12 12 12 12 12 12 12 12 12 12 12 12 12 12 12 12 13 13 13 13 13 13 13 13 13 13 13 13 13 13 13
11 11 11 11 11 11 11 12 12 12 12 12 12 12 12 12 12 12 12 12 12 12 12 12 12 12 12 12 12 12 12 12 12 13 13 13 13 12 12 12 12 12 12
10 11 11 11 11 11 11 11 11 11 11 11 11 11 11 11 11 11 11 11 12 12 12 12 12 12 12 12 12 12 12 12 12 12 12 12 12 12 12 12 12 12 12
10 10 10 11 10 10 10 11 11 11 11 11 11 11 11 11 11 11 11 11 11 11 11 11 11 11 11 11 11 11 12 12 12 12 12 12 12 12 12 12 12 12 12
9 10 10 10 10 10 10 10 10 10 11 11 11 11 11 11 11 11 11 11 11 11 11 11 11 11 11 11 11 11 11 11 12 12 12 12 12 12 12 11 11 11 11
9 9 9 9 9 10 10 10 10 10 10 10 10 10 10 10 10 10 10 10 10 10 10 10 10 10 11 11 11 11 11 11 11 11 11 11 11 11 11 11 11 11 11
8 8 8 9 9 9 9 9 9 9 10 10 10 10 10 10 10 10 10 10 10 10 10 10 10 10 10 10 10 10 10 10 11 11 11 11 11 11 11 11 11 11 11
7 7 7 8 8 8 8 8 9 9 9 9 9 9 9 9 9 9 9 10 10 10 10 10 10 10 10 10 10 10 10 10 10 10 10 10 10 10 10 10 10 10 10
6 6 7 7 7 7 8 8 8 8 8 8 8 8 9 9 9 9 9 9 9 9 9 9 9 9 9 9 9 9 10 10 10 10 10 10 10 10 10 10 10 10 10
6 6 6 6 6 7 7 7 7 8 8 8 8 8 8 8 8 8 9 9 9 9 9 9 9 9 9 9 9 9 9 9 9 9 9 9 9 9 9 9 9 10 10
5 5 5 5 5 6 6 6 6 7 7 7 7 7 7 8 8 8 8 8 8 8 9 9 9 9 9 9 8 8 8 8 8 8 9 9 9 9 9 9 9 9 9
4 4 4 5 5 5 5 5 6 6 6 6 7 7 7 7 7 7 7 8 8 8 8 8 8 8 8 8 8 8 8 8 8 8 8 8 8 8 8 9 9 9 9
3 3 4 4 4 4 4 4 5 5 5 5 6 6 6 6 6 7 7 7 7 7 7 8 8 8 8 8 8 8 8 8 8 7 7 8 8 8 8 8 8 8 8
2 2 3 3 3 4 4 4 4 4 4 4 5 5 5 6 6 6 6 6 7 7 7 7 7 7 7 7 7 7 7 8 8 7 7 7 7 7 7 7 8 8 8
2 2 2 2 2 3 3 3 3 3 3 4 4 4 5 5 5 5 6 6 6 6 6 6 7 7 7 7 7 7 7 7 7 7 7 7 7 7 7 7 7 7 7
Wind_Speed
3 4 8 9 10 9 10 10 10 10 10 10 10 10 10 10 10 10 10 10 10 10 10 11 11 12 13 14 14 14 15 15 15 15 15 15 15 15 15 15 15 15 17
5 7 9 10 10 10 9 9 9 10 9 9 9 9 9 9 9 9 9 9 9 9 10 10 10 11 12 13 13 13 14 14 14 14 14 13 14 14 15 15 14 14 16
5 7 9 10 10 10 9 9 9 9 8 8 8 8 8 8 8 8 8 9 9 9 9 9 10 11 11 12 12 12 13 13 13 13 12 11 12 13 14 14 15 15 16
6 7 8 10 10 9 9 8 8 8 7 7 7 7 7 7 7 7 8 8 8 8 9 9 10 10 10 11 11 11 11 12 11 11 10 10 10 12 12 13 14 14 15
5 6 7 9 9 8 8 7 7 6 7 7 6 6 6 6 7 7 7 7 7 8 8 8 9 10 10 10 10 10 10 11 11 10 9 9 9 10 11 12 13 13 14
5 6 7 8 8 7 7 6 6 6 6 6 6 6 6 6 6 6 6 7 7 7 8 8 8 9 9 9 9 9 10 10 10 9 8 7 7 9 10 11 12 12 12
4 5 5 7 7 7 6 6 6 5 5 5 5 5 6 6 6 6 6 6 6 6 7 8 8 8 8 8 8 9 9 9 9 8 7 6 6 7 9 11 11 11 12
5 6 5 5 5 6 6 6 5 4 4 5 4 4 5 5 5 5 5 5 5 6 7 7 8 8 7 8 8 8 9 8 7 6 6 5 5 7 8 9 10 11 11
7 6 5 5 4 4 4 5 4 4 4 4 4 5 5 5 5 5 4 4 4 5 6 6 7 7 7 8 8 9 9 8 7 5 4 4 5 7 8 9 9 10 10
5 6 6 5 5 5 3 3 3 4 4 4 5 5 6 5 5 4 4 4 4 5 5 6 6 6 7 7 8 8 8 7 6 5 4 3 4 6 7 8 9 9 9
5 4 5 5 5 5 4 4 3 3 3 4 4 5 5 5 5 4 4 3 4 4 4 5 6 6 6 7 7 8 7 6 5 4 3 3 4 5 6 7 8 9 9
3 4 4 5 4 4 3 4 4 4 4 4 4 4 4 4 4 3 3 3 3 3 4 5 6 6 6 6 6 6 5 5 4 3 2 2 3 5 6 7 7 8 8
1 3 4 4 4 4 3 4 4 4 4 3 3 3 3 4 3 3 3 2 3 3 4 4 5 5 6 5 5 5 5 4 4 3 3 2 3 4 5 6 6 7 7
3 3 3 4 4 3 3 3 3 3 3 2 2 2 2 2 2 2 2 2 2 3 4 4 4 5 5 5 5 4 4 3 3 3 2 2 2 3 4 5 5 6 6
3 4 4 3 3 3 3 2 2 2 1 1 2 1 1 2 2 2 2 2 2 3 3 3 4 4 4 4 4 4 3 3 3 2 2 2 2 2 3 4 4 5 6
4 4 4 3 4 4 3 2 1 1 1 1 1 1 0 1 2 2 2 1 1 2 3 4 4 3 3 3 3 3 3 3 2 2 2 1 2 2 3 3 3 4 5
4 4 4 3 4 4 3 3 2 2 1 1 0 1 1 0 1 2 2 1 2 3 4 4 3 3 2 2 2 2 3 2 2 2 2 2 2 2 2 2 2 3 4
5 4 4 3 3 3 3 3 3 2 2 1 1 1 0 0 1 2 1 1 2 3 3 3 3 2 2 1 1 1 2 2 2 2 3 3 3 3 2 2 3 3 2
5 5 4 4 3 3 3 3 3 3 3 2 2 1 1 1 1 2 1 1 2 2 2 3 2 3 3 2 2 1 1 2 2 2 3 3 3 3 3 3 3 2 2
6 5 5 5 5 4 3 3 3 3 3 3 2 2 2 1 1 1 1 1 2 2 2 3 3 3 3 3 2 2 2 2 2 3 2 3 3 3 4 4 3 3 3
8 7 6 5 5 4 3 2 2 3 3 3 3 3 3 2 1 0 0 1 1 2 3 3 3 3 2 3 3 2 2 2 2 2 2 2 3 3 4 4 4 3 2
8 8 7 6 5 4 2 2 2 2 2 2 3 4 3 3 2 1 0 1 1 2 2 3 3 3 2 2 3 3 1 0 1 1 1 1 2 3 3 3 3 3 2
8 8 7 7 6 5 5 3 3 3 2 2 3 3 4 3 2 1 1 1 1 2 3 4 4 4 4 3 2 3 3 3 1 0 1 1 1 1 1 2 3 2 2
8 7 7 7 7 6 4 3 2 2 3 3 3 3 4 3 2 2 1 1 1 2 3 3 4 3 4 4 2 1 1 3 3 1 1 0 1 1 0 1 2 1 1
7 7 7 7 8 7 5 4 2 3 3 3 3 3 4 3 3 2 2 1 1 2 3 3 3 3 3 4 3 2 2 1 1 2 2 1 0 0 0 0 0 0 0
8 8 8 8 8 7 6 5 4 4 3 4 4 3 3 3 3 3 2 1 1 1 2 3 3 4 4 4 3 3 3 3 3 2 2 2 1 1 1 0 0 0 1
Wind_Direction
198 195 171 151 142 137 131 125 118 112 107 105 105 106 105 105 107 105 105 102 98 95 94 92 89 88 88 87 86 86 86 85 84 84 84 86 88 91 92 89 87 85 88
166 174 164 151 142 136 132 129 122 116 111 108 106 105 106 108 109 106 106 105 104 100 97 96 92 91 90 89 88 88 87 87 86 85 84 84 87 90 92 92 91 92 90
141 157 159 152 142 135 130 128 123 119 115 112 111 109 108 109 112 108 106 105 105 105 101 98 98 95 92 92 91 91 90 91 88 85 84 83 87 90 92 94 94 94 93
135 146 152 150 141 135 129 125 127 126 121 117 115 114 114 113 114 113 108 106 104 104 104 101 101 100 97 95 95 94 92 91 89 86 83 83 88 92 93 97 97 96 95
109 123 139 141 137 135 133 130 125 128 130 124 121 122 119 117 113 111 110 105 103 103 108 108 106 104 101 99 99 97 94 89 88 86 83 84 88 97 98 101 100 99 98
91 101 124 129 129 127 127 129 129 128 130 131 130 128 124 119 116 114 109 107 107 109 113 115 115 111 106 104 104 101 94 91 88 86 83 87 92 101 105 106 104 104 104
83 80 104 119 123 127 126 126 127 132 131 129 135 134 132 126 120 118 113 110 113 114 115 117 121 118 113 109 108 107 101 93 91 86 83 91 102 109 111 111 110 109 108
74 63 77 96 111 123 128 126 124 128 132 128 123 128 126 119 117 118 115 116 119 122 120 116 117 118 116 113 110 108 105 97 90 85 84 94 113 115 117 115 113 112 111
59 53 47 60 72 90 115 123 120 113 116 120 120 112 115 121 115 115 111 112 118 121 122 121 120 119 116 115 111 108 101 95 87 79 81 92 112 120 121 118 117 114 114
50 43 38 40 51 55 58 91 113 111 107 106 107 104 98 101 106 109 106 106 112 117 120 123 124 122 117 115 113 111 103 91 83 76 76 93 114 125 124 121 121 119 118
37 30 30 34 40 46 52 56 75 99 101 97 93 96 92 85 85 93 100 103 105 110 114 120 125 122 115 113 116 113 104 91 83 71 74 100 120 129 129 127 124 124 122
18 13 22 26 31 45 50 50 57 66 73 81 87 93 94 93 87 87 89 93 99 108 109 113 119 117 113 107 109 111 103 98 87 70 71 102 128 133 132 133 130 131 129
352 9 9 18 26 41 45 55 56 58 62 69 83 103 105 97 89 84 78 72 76 92 94 98 100 109 113 114 110 109 109 105 97 85 68 95 134 139 136 136 137 139 140
18 3 2 10 20 29 48 56 65 65 64 61 68 94 115 106 99 98 92 92 89 97 97 95 100 106 112 118 120 115 111 108 104 96 72 86 140 148 147 145 144 148 151
10 5 2 16 25 23 38 42 48 49 64 65 58 59 136 134 140 125 115 106 112 115 113 108 108 106 107 109 114 116 113 108 104 102 89 87 146 160 157 156 157 159 164
355 356 3 18 24 32 33 24 28 40 32 46 42 21 115 163 159 146 134 127 137 147 140 132 128 121 111 110 104 106 113 116 108 108 104 101 132 150 157 163 165 166 175
344 356 5 13 24 30 24 15 13 5 26 43 358 357 40 118 172 159 156 163 178 171 148 129 118 112 112 105 110 96 98 110 115 106 106 107 114 128 142 151 162 167 175
352 358 1 5 17 21 17 13 15 11 10 358 343 336 326 233 179 140 162 185 188 168 149 147 147 140 142 137 127 106 90 94 103 104 100 101 100 102 106 118 137 147 163
355 358 358 1 4 8 11 14 17 19 15 358 349 337 310 285 212 142 158 198 182 157 160 173 160 156 156 149 131 101 88 91 84 93 85 87 100 105 102 105 115 116 120
2 4 3 1 3 3 12 16 16 14 9 6 357 338 325 306 291 140 148 182 172 173 186 180 174 158 158 151 121 90 67 70 76 76 80 84 89 102 105 103 99 101 100
7 8 4 5 1 4 2 354 346 339 340 349 357 347 348 337 310 89 324 175 185 207 204 187 179 158 154 144 119 92 50 60 75 72 73 83 80 90 93 92 94 94 94
1 1 1 356 353 348 335 332 323 319 317 336 358 352 348 344 326 282 167 239 213 219 203 192 178 169 166 166 148 144 152 2 20 59 71 97 86 81 86 90 86 86 89
357 356 353 347 345 345 345 0 6 4 359 0 343 332 335 326 322 327 295 250 220 217 216 206 195 180 184 192 171 159 163 198 207 341 66 91 93 94 80 87 88 86 89
345 347 350 349 349 345 352 354 2 340 324 314 314 309 327 326 323 305 296 267 230 223 221 218 205 200 182 190 191 162 157 149 158 188 264 127 99 101 79 60 70 71 88
342 348 347 350 352 350 345 335 319 310 312 321 328 319 321 328 325 309 286 283 265 245 227 215 211 202 193 188 185 172 151 111 133 158 200 232 321 299 273 19 47 36 258
351 354 351 351 348 346 340 334 323 310 315 325 322 311 313 308 313 314 298 287 285 268 239 223 208 203 199 187 184 182 173 163 169 163 182 201 225 258 287 304 17 301 279
Height
1518 1520 1522 1523 1525 1526 1527 1529 1530 1531 1532 1533 1533 1534 1535 1536 1537 1537 1538 1539 1540 1540 1541 1541 1542 1543 1543 1544 1544 1545 1545 1546 1546 1547 1548 1548 1549 1549 1550 1550 1550 1551 1551
1518 1520 1522 1523 1525 1526 1527 1529 1530 1531 1532 1533 1534 1534 1535 1536 1537 1538 1539 1539 1540 1541 1541 1542 1543 1543 1544 1545 1545 1546 1547 1547 1548 1549 1549 1550 1551 1551 1551 1552 1552 1553 1553
1518 1520 1522 1523 1525 1526 1528 1529 1530 1531 1532 1533 1534 1535 1536 1536 1537 1538 1539 1540 1540 1541 1542 1542 1543 1544 1545 1545 1546 1547 1548 1548 1549 1550 1551 1551 1552 1553 1553 1554 1554 1554 1555
1519 1520 1522 1524 1525 1527 1528 1529 1530 1531 1532 1533 1534 1535 1536 1537 1537 1538 1539 1540 1540 1541 1542 1543 1543 1544 1545 1546 1547 1548 1548 1549 1550 1551 1552 1552 1553 1554 1554 1555 1556 1556 1556
1519 1521 1523 1524 1525 1526 1528 1529 1530 1531 1532 1533 1534 1535 1536 1537 1537 1538 1539 1540 1540 1541 1542 1543 1544 1544 1545 1546 1547 1548 1549 1550 1551 1551 1552 1553 1554 1555 1555 1556 1557 1557 1558
1519 1521 1523 1524 1525 1526 1527 1528 1529 1530 1531 1532 1533 1534 1535 1536 1537 1538 1539 1540 1540 1541 1542 1543 1544 1544 1545 1546 1547 1548 1549 1550 1551 1552 1553 1554 1555 1556 1556 1557 1558 1558 1559
1520 1521 1523 1524 1525 1526 1527 1528 1529 1530 1531 1532 1533 1534 1535 1536 1537 1538 1539 1539 1540 1541 1542 1543 1544 1545 1545 1546 1547 1548 1550 1551 1552 1552 1553 1554 1555 1556 1557 1558 1558 1559 1560
1520 1521 1522 1524 1525 1526 1527 1528 1529 1530 1531 1532 1533 1533 1535 1536 1536 1537 1538 1539 1540 1541 1542 1543 1543 1544 1545 1546 1547 1548 1550 1551 1552 1553 1554 1555 1556 1557 1557 1558 1559 1560 1560
1520 1521 1522 1523 1524 1525 1526 1527 1528 1529 1530 1531 1532 1533 1534 1535 1536 1536 1537 1538 1539 1540 1541 1542 1543 1544 1545 1546 1547 1548 1549 1551 1552 1553 1554 1555 1556 1557 1558 1558 1559 1560 1561
1520 1521 1522 1522 1523 1524 1525 1526 1527 1528 1529 1530 1531 1532 1533 1534 1535 1535 1536 1537 1538 1539 1540 1542 1543 1544 1545 1546 1547 1548 1549 1550 1551 1553 1554 1555 1556 1557 1558 1558 1559 1560 1561
1519 1520 1521 1521 1522 1523 1524 1525 1526 1527 1528 1529 1530 1531 1532 1532 1533 1534 1535 1536 1537 1539 1540 1541 1542 1543 1544 1545 1546 1547 1549 1550 1551 1552 1553 1555 1556 1557 1558 1558 1559 1560 1561
1517 1519 1519 1520 1521 1522 1523 1524 1525 1526 1527 1528 1528 1529 1530 1531 1532 1533 1534 1535 1537 1538 1539 1540 1541 1542 1543 1544 1545 1547 1548 1549 1550 1552 1553 1554 1555 1556 1557 1558 1558 1560 1561
1517 1518 1519 1519 1520 1521 1522 1522 1523 1524 1525 1526 1527 1528 1529 1529 1530 1531 1532 1534 1535 1536 1537 1539 1540 1541 1542 1543 1544 1546 1547 1548 1549 1551 1552 1553 1554 1555 1556 1557 1558 1559 1560
1516 1516 1517 1518 1519 1519 1520 1521 1522 1523 1523 1524 1525 1526 1527 1528 1529 1530 1531 1532 1533 1535 1536 1537 1538 1539 1541 1542 1543 1544 1545 1547 1548 1549 1550 1552 1553 1554 1555 1556 1557 1558 1559
1514 1515 1516 1516 1517 1518 1519 1519 1520 1521 1522 1522 1523 1524 1525 1526 1527 1528 1529 1530 1531 1532 1534 1535 1537 1538 1539 1540 1541 1543 1544 1545 1546 1548 1549 1550 1551 1552 1554 1555 1556 1557 1558
1513 1513 1514 1514 1515 1516 1517 1517 1518 1519 1520 1520 1521 1522 1523 1523 1524 1525 1526 1528 1529 1530 1532 1533 1535 1536 1537 1539 1540 1541 1542 1543 1544 1546 1547 1548 1549 1551 1552 1553 1554 1555 1556
1512 1512 1512 1512 1513 1514 1515 1515 1516 1517 1517 1518 1519 1520 1520 1521 1522 1523 1524 1525 1527 1528 1529 1531 1532 1534 1535 1536 1538 1539 1540 1541 1542 1543 1545 1546 1547 1548 1550 1551 1552 1553 1554
1511 1511 1511 1511 1511 1512 1513 1513 1514 1515 1515 1516 1516 1517 1518 1518 1519 1520 1521 1522 1524 1525 1526 1527 1529 1531 1532 1534 1535 1536 1538 1539 1540 1541 1542 1544 1545 1546 1547 1549 1550 1551 1552
1510 1509 1509 1510 1510 1510 1511 1511 1512 1512 1513 1513 1513 1514 1515 1516 1517 1517 1518 1519 1521 1522 1523 1525 1526 1528 1529 1531 1532 1534 1535 1536 1537 1539 1540 1541 1542 1544 1545 1546 1547 1548 1549
1509 1508 1508 1508 1508 1508 1508 1509 1509 1510 1510 1510 1511 1511 1512 1513 1513 1514 1515 1516 1518 1519 1520 1521 1522 1524 1526 1528 1530 1531 1532 1533 1535 1536 1537 1538 1540 1541 1542 1543 1545 1546 1547
1507 1506 1506 1506 1505 1505 1505 1505 1505 1505 1506 1507 1508 1508 1509 1509 1510 1511 1512 1513 1514 1515 1516 1518 1519 1521 1523 1525 1527 1528 1530 1531 1532 1533 1534 1536 1537 1538 1539 1540 1542 1543 1544
1506 1505 1504 1504 1504 1504 1504 1504 1503 1503 1503 1504 1504 1505 1506 1506 1507 1507 1508 1509 1510 1512 1513 1514 1516 1517 1519 1521 1523 1525 1527 1529 1529 1530 1531 1533 1534 1535 1536 1538 1539 1540 1541
1504 1503 1503 1503 1502 1502 1502 1501 1501 1500 1500 1500 1500 1501 1502 1502 1503 1503 1504 1506 1507 1508 1508 1510 1512 1513 1515 1517 1519 1522 1523 1523 1525 1527 1528 1530 1531 1532 1533 1534 1536 1537 1538
1504 1503 1502 1501 1500 1500 1499 1498 1497 1497 1496 1496 1497 1497 1498 1499 1499 1500 1501 1502 1503 1504 1504 1506 1508 1510 1511 1513 1515 1517 1519 1520 1522 1523 1525 1526 1527 1529 1530 1531 1532 1533 1534
1504 1502 1501 1499 1498 1497 1497 1496 1495 1495 1494 1494 1494 1494 1494 1494 1495 1496 1497 1497 1498 1499 1500 1502 1504 1505 1507 1509 1510 1512 1514 1516 1518 1519 1521 1522 1524 1525 1527 1528 1529 1530 1531
1502 1501 1499 1497 1496 1495 1494 1493 1492 1492 1491 1490 1490 1490 1490 1490 1491 1492 1493 1493 1494 1495 1496 1498 1499 1501 1502 1504 1506 1508 1509 1511 1513 1515 1516 1518 1519 1522 1523 1524 1525 1527 1528